Location: Gazon
(48.1318°N, 1.2708°W)
Time: 01:50:03
(UTC+00:00)

Landsat 7 - Pass Details

Date: 18 September 2020
Orbit: 701 x 703 km, 98.1° (Epoch: 29 October)

Event Time Altitude Azimuth Distance (km) Brightness Sun altitude
Exits shadow 21:04:39 62° 355° (N) 796 4.1 -27.7°
Drops below altitude 10° 21:08:38 10° 347° (NNW) 2,183 7.0 -28.2°
Sets 21:10:54 0° 347° (NNW) 3,106 7.9 -28.5°
